Regional Weather Roundup
Issued by NWS

Home | Current Version | Previous Version | Graphics & Text | Print | Product List | Glossary On
Versions: 1 2 3 4 5 6 7 8 9 10 11 12 13 14 15 16 17 18 19 20 21 22 23 24 25 26 27 28 29 30 31 32 33 34 35 36 37 38 39 40 41 42 43 44 45 46 47 48 49 50
000
ASUS43 KLSX 020659
RWRMO

WEATHER SUMMARY FOR MISSOURI
NATIONAL WEATHER SERVICE SPRINGFIELD MO
200 AM CDT TUE SEP 02 2014

NOTE: "FAIR" INDICATES FEW OR NO CLOUDS BELOW 12,000 FEET WITH NO
       SIGNIFICANT WEATHER AND/OR OBSTRUCTIONS TO VISIBILITY.
       CURRENT SKY AND/OR WEATHER CONDITIONS ARE NOT AVAILABLE FOR
       CHILLICOTHE AND FARMINGTON.

MOZ001>031-035>038-043-044-053-054-020800-
...NORTHERN AND WESTERN MISSOURI...

CITY           SKY/WX    TMP DP  RH WIND       PRES   REMARKS
KANSAS CTY INT CLOUDY    68  67  96 NW6       29.93R FOG
KANSAS C DTWN  CLOUDY    72  69  90 CALM      29.90S
LEE`S SUMMIT   CLOUDY    70  69  97 SW5       29.90F FOG
ST JOSEPH      MOCLDY    63  62  97 NW5       29.93S
KIRKSVILLE     CLOUDY    66  64  93 SW5       29.93R

$$
MOZ066>068-077>081-088>096-101>105-020800-
...SOUTHWEST MISSOURI...

CITY           SKY/WX    TMP DP  RH WIND       PRES   REMARKS
SPRINGFIELD    LGT RAIN  71  67  87 W7        29.94F
JOPLIN         TSTM      66  64  93 VRB3      29.94F

$$
MOZ032>034-039>042-045>050-055>058-069>072-020800-
...CENTRAL MISSOURI...

CITY           SKY/WX    TMP DP  RH WIND       PRES   REMARKS
COLUMBIA       CLOUDY    69  69 100 CALM      29.92R
JEFFERSON CITY CLOUDY    71  69  93 SE5       29.90F
ROLLA          RAIN      69  68  96 W14G21    29.98R
SEDALIA        CLOUDY    72  70  93 E6        29.91F FOG
OSAGE BEACH    CLOUDY    72  66  83 SE6       29.91F

$$
MOZ051-052-059>065-020800-
...EAST CENTRAL MISSOURI...

CITY           SKY/WX    TMP DP  RH WIND       PRES   REMARKS
ST LOUIS INTL  TSTM      70  68  93 W7        29.97R
SPIRIT OF STL  LGT RAIN  69  68  96 CALM      29.96R
ST CHARLES     CLOUDY    68  68 100 CALM      29.95S FOG

$$
MOZ072>076-082>087-097>100-106>115-020800-
...SOUTH CENTRAL AND SOUTHEAST MISSOURI...

CITY           SKY/WX    TMP DP  RH WIND       PRES   REMARKS
CAPE GIRARDEAU CLOUDY    78  72  81 S10       29.94F
FARMINGTON     CLOUDY    75  72  88 SW7       29.97R
POPLAR BLUFF   CLOUDY    76  70  82 SW7       29.95S
WEST PLAINS    LGT RAIN  77  71  82 S8        29.97F

$$



USA.gov is the U.S. government's official web portal to all federal, state and local government web resources and services.